WMT771 LATI-LIRZ

Flight info

Callsign WMT771
Flight time 1h 21m
Altitude 36000
Route DIRES DCT PAPIZ DCT DIVKU DCT SUXUB DCT MOPUV/N0348F180 Y106 GITOD
Aircraft A321/M-SDE1E2E3FGIJ1J4RWXY/LB1

Departure

Time 2026-05-07 09:47
Airport Tirana International Airport Mother Teresa (LATI)

Arrival

Time 2026-05-07 11:08
Airport Perugia San Francesco d'Assisi – Umbria International Airport (LIRZ)
Time Latitude Longitude Altitude Speed Heading
2026-05-07 09:01 41.42065 19.71499 122 ft 0 kts 264°
2026-05-07 09:36 41.42065 19.71502 149 ft 2 kts 264°
2026-05-07 09:36 41.42068 19.71530 120 ft 3 kts 269°
2026-05-07 09:37 41.42064 19.71557 117 ft 3 kts 321°
2026-05-07 09:37 41.42043 19.71568 118 ft 3 kts 354°
2026-05-07 09:37 41.42034 19.71569 118 ft 0 kts 354°
2026-05-07 09:40 41.42035 19.71569 122 ft 1 kts 354°
2026-05-07 09:41 41.42048 19.71567 119 ft 4 kts 354°
2026-05-07 09:41 41.42088 19.71562 121 ft 8 kts 354°
2026-05-07 09:41 41.42149 19.71553 120 ft 10 kts 354°
2026-05-07 09:41 41.42227 19.71542 118 ft 13 kts 354°
2026-05-07 09:42 41.42322 19.71529 120 ft 15 kts 354°
2026-05-07 09:42 41.42432 19.71515 116 ft 17 kts 354°
2026-05-07 09:42 41.42557 19.71497 115 ft 18 kts 354°
2026-05-07 09:42 41.42644 19.71491 118 ft 6 kts 14°
2026-05-07 09:43 41.42664 19.71540 118 ft 7 kts 82°
2026-05-07 09:43 41.42668 19.71609 117 ft 8 kts 84°
2026-05-07 09:43 41.42672 19.71659 118 ft 0 kts 84°
2026-05-07 09:43 41.42673 19.71671 118 ft 2 kts 84°
2026-05-07 09:44 41.42676 19.71702 118 ft 4 kts 84°
2026-05-07 09:44 41.42679 19.71742 118 ft 3 kts 84°
2026-05-07 09:44 41.42679 19.71745 118 ft 0 kts 84°
2026-05-07 09:45 41.42680 19.71750 118 ft 1 kts 84°
2026-05-07 09:45 41.42681 19.71772 115 ft 3 kts 84°
2026-05-07 09:45 41.42684 19.71810 116 ft 5 kts 84°
2026-05-07 09:45 41.42687 19.71859 117 ft 6 kts 85°
2026-05-07 09:46 41.42663 19.71898 116 ft 7 kts 166°
2026-05-07 09:46 41.42602 19.71906 116 ft 14 kts 174°
2026-05-07 09:46 41.42293 19.71947 119 ft 84 kts 174°
2026-05-07 09:46 41.41470 19.72060 132 ft 150 kts 173°
2026-05-07 09:47 41.40405 19.72208 782 ft 153 kts 172°
2026-05-07 09:47 41.39352 19.72345 1585 ft 153 kts 172°
2026-05-07 09:47 41.38240 19.72492 2014 ft 171 kts 172°
2026-05-07 09:47 41.36981 19.72664 2385 ft 192 kts 173°
2026-05-07 09:48 41.35565 19.72858 2690 ft 217 kts 174°
2026-05-07 09:48 41.33977 19.73070 3125 ft 239 kts 174°
2026-05-07 09:48 41.32289 19.73291 3903 ft 247 kts 175°
2026-05-07 09:48 41.30560 19.73514 4745 ft 252 kts 176°
2026-05-07 09:49 41.28791 19.73741 5579 ft 260 kts 178°
2026-05-07 09:49 41.26960 19.73972 6339 ft 269 kts 179°
2026-05-07 09:49 41.25121 19.73673 7050 ft 267 kts 208°
2026-05-07 09:49 41.23740 19.72103 7867 ft 263 kts 238°
2026-05-07 09:50 41.22885 19.69969 8786 ft 262 kts 248°
2026-05-07 09:50 41.22229 19.67710 9738 ft 263 kts 251°
2026-05-07 09:50 41.21602 19.65406 10462 ft 273 kts 251°
2026-05-07 09:50 41.20904 19.62948 10780 ft 296 kts 249°
2026-05-07 09:51 41.20111 19.60354 11311 ft 308 kts 248°
2026-05-07 09:51 41.19256 19.57727 12082 ft 311 kts 247°
2026-05-07 09:51 41.18365 19.55092 12894 ft 314 kts 246°
2026-05-07 09:51 41.17446 19.52439 13674 ft 318 kts 246°
2026-05-07 09:52 41.16505 19.49763 14365 ft 322 kts 246°
2026-05-07 09:52 41.15549 19.47053 15035 ft 326 kts 246°
2026-05-07 09:52 41.14583 19.44313 15717 ft 330 kts 245°
2026-05-07 09:52 41.13608 19.41541 16416 ft 333 kts 245°
2026-05-07 09:53 41.12626 19.38738 17137 ft 336 kts 245°
2026-05-07 09:53 41.11635 19.35913 17854 ft 340 kts 245°
2026-05-07 09:53 41.10634 19.33061 18538 ft 343 kts 245°
2026-05-07 09:53 41.09623 19.30183 19143 ft 346 kts 245°
2026-05-07 09:54 41.08602 19.27283 19753 ft 349 kts 245°
2026-05-07 09:54 41.07571 19.24360 20389 ft 351 kts 244°
2026-05-07 09:54 41.06532 19.21415 21003 ft 354 kts 244°
2026-05-07 09:54 41.05264 19.18612 21612 ft 357 kts 233°
2026-05-07 09:55 41.03628 19.16119 22218 ft 360 kts 228°
2026-05-07 09:55 41.01927 19.13662 22834 ft 363 kts 228°
2026-05-07 09:55 41.00216 19.11184 23470 ft 366 kts 229°
2026-05-07 09:55 40.98490 19.08678 23958 ft 370 kts 228°
2026-05-07 09:56 40.96747 19.06150 24435 ft 374 kts 228°
2026-05-07 09:56 40.94983 19.03595 24891 ft 377 kts 228°
2026-05-07 09:56 40.93216 19.01017 25369 ft 380 kts 230°
2026-05-07 09:56 40.91738 18.98115 25806 ft 383 kts 242°
2026-05-07 09:57 40.90796 18.94802 26244 ft 388 kts 255°
2026-05-07 09:57 40.90459 18.91240 26680 ft 395 kts 268°
2026-05-07 09:57 40.90762 18.87605 27107 ft 403 kts 280°
2026-05-07 09:57 40.91506 18.84016 27529 ft 407 kts 282°
2026-05-07 09:58 40.92270 18.80402 27959 ft 410 kts 282°
2026-05-07 09:58 40.93035 18.76760 28400 ft 413 kts 282°
2026-05-07 09:58 40.93799 18.73085 28788 ft 416 kts 282°
2026-05-07 09:58 40.94569 18.69378 29192 ft 420 kts 282°
2026-05-07 09:59 40.95343 18.65643 29594 ft 423 kts 282°
2026-05-07 09:59 40.96123 18.61876 29997 ft 426 kts 282°
2026-05-07 09:59 40.96907 18.58088 30356 ft 429 kts 282°
2026-05-07 09:59 40.97696 18.54272 30701 ft 431 kts 281°
2026-05-07 10:00 40.98488 18.50439 31056 ft 433 kts 281°
2026-05-07 10:00 40.99284 18.46590 31369 ft 435 kts 281°
2026-05-07 10:00 41.00084 18.42714 31635 ft 438 kts 281°
2026-05-07 10:00 41.00889 18.38803 31885 ft 442 kts 281°
2026-05-07 10:01 41.01695 18.34881 32143 ft 442 kts 281°
2026-05-07 10:01 41.02501 18.30953 32400 ft 442 kts 281°
2026-05-07 10:01 41.03304 18.27030 32664 ft 441 kts 281°
2026-05-07 10:01 41.04112 18.23058 32933 ft 441 kts 281°
2026-05-07 10:02 41.04897 18.19193 33194 ft 440 kts 281°
2026-05-07 10:02 41.05700 18.15229 33465 ft 439 kts 281°
2026-05-07 10:02 41.06479 18.11377 33732 ft 438 kts 281°
2026-05-07 10:02 41.07276 18.07425 34012 ft 438 kts 281°
2026-05-07 10:03 41.08060 18.03529 34256 ft 437 kts 281°
2026-05-07 10:03 41.08843 17.99643 34493 ft 436 kts 281°
2026-05-07 10:03 41.09623 17.95773 34733 ft 434 kts 281°
2026-05-07 10:03 41.10397 17.91910 34974 ft 433 kts 281°
2026-05-07 10:04 41.11168 17.88061 35205 ft 431 kts 281°
2026-05-07 10:04 41.11939 17.84228 35460 ft 430 kts 281°
2026-05-07 10:04 41.12707 17.80407 35709 ft 428 kts 281°
2026-05-07 10:04 41.13469 17.76598 35955 ft 426 kts 281°
2026-05-07 10:05 41.14221 17.72803 36072 ft 423 kts 281°
2026-05-07 10:05 41.15694 17.65344 36075 ft 415 kts 281°
2026-05-07 10:06 41.17148 17.57950 36073 ft 414 kts 281°
2026-05-07 10:06 41.18601 17.50558 36073 ft 414 kts 281°
2026-05-07 10:07 41.20057 17.43166 36067 ft 414 kts 281°
2026-05-07 10:07 41.21503 17.35772 36090 ft 413 kts 281°
2026-05-07 10:08 41.22937 17.28394 36088 ft 412 kts 281°
2026-05-07 10:08 41.24360 17.21043 36087 ft 410 kts 281°
2026-05-07 10:09 41.25778 17.13709 36080 ft 409 kts 281°
2026-05-07 10:09 41.27187 17.06384 36078 ft 409 kts 281°
2026-05-07 10:10 41.28590 16.99061 36085 ft 408 kts 281°
2026-05-07 10:10 41.29985 16.91757 36079 ft 407 kts 281°
2026-05-07 10:11 41.31371 16.84466 36060 ft 406 kts 281°
2026-05-07 10:11 41.32754 16.77184 36058 ft 406 kts 281°
2026-05-07 10:12 41.34130 16.69902 36064 ft 406 kts 281°
2026-05-07 10:12 41.35502 16.62627 36064 ft 405 kts 281°
2026-05-07 10:13 41.36855 16.55365 36064 ft 404 kts 281°
2026-05-07 10:13 41.38204 16.48111 36060 ft 403 kts 281°
2026-05-07 10:14 41.39553 16.40866 36058 ft 403 kts 281°
2026-05-07 10:14 41.40900 16.33623 36067 ft 403 kts 282°
2026-05-07 10:15 41.42239 16.26384 36064 ft 402 kts 281°
2026-05-07 10:15 41.43573 16.19156 36055 ft 401 kts 281°
2026-05-07 10:16 41.44895 16.11936 36053 ft 401 kts 281°
2026-05-07 10:16 41.46213 16.04718 36051 ft 401 kts 281°
2026-05-07 10:17 41.47528 15.97495 36056 ft 401 kts 281°
2026-05-07 10:17 41.48833 15.90273 36052 ft 401 kts 281°
2026-05-07 10:18 41.50137 15.83049 36049 ft 401 kts 282°
2026-05-07 10:18 41.51659 15.75893 36049 ft 401 kts 284°
2026-05-07 10:19 41.53336 15.68786 36069 ft 402 kts 284°
2026-05-07 10:19 41.54989 15.61661 36071 ft 402 kts 284°
2026-05-07 10:20 41.56592 15.54501 36058 ft 402 kts 283°
2026-05-07 10:20 41.58174 15.47336 36038 ft 403 kts 283°
2026-05-07 10:21 41.59758 15.40160 36041 ft 403 kts 283°
2026-05-07 10:21 41.61352 15.32987 36045 ft 403 kts 283°
2026-05-07 10:22 41.62943 15.25808 36049 ft 403 kts 283°
2026-05-07 10:22 41.64515 15.18634 36056 ft 401 kts 283°
2026-05-07 10:23 41.66082 15.11479 36051 ft 401 kts 283°
2026-05-07 10:23 41.67395 15.05494 36053 ft 400 kts 283°
2026-05-07 10:24 41.68949 14.98350 36045 ft 400 kts 283°
2026-05-07 10:24 41.70491 14.91210 36061 ft 399 kts 283°
2026-05-07 10:25 41.72029 14.84098 36054 ft 396 kts 283°
2026-05-07 10:25 41.73551 14.77039 36044 ft 393 kts 283°
2026-05-07 10:26 41.75058 14.70019 36052 ft 392 kts 283°
2026-05-07 10:26 41.76557 14.63011 36050 ft 391 kts 283°
2026-05-07 10:27 41.78054 14.56019 36041 ft 390 kts 283°
2026-05-07 10:27 41.79541 14.49032 36028 ft 390 kts 283°
2026-05-07 10:28 41.81017 14.42045 36033 ft 389 kts 283°
2026-05-07 10:28 41.82494 14.35063 36030 ft 389 kts 282°
2026-05-07 10:29 41.83967 14.28079 36038 ft 389 kts 282°
2026-05-07 10:29 41.85437 14.21082 36052 ft 389 kts 282°
2026-05-07 10:30 41.87618 14.10612 36042 ft 388 kts 282°
2026-05-07 10:30 41.89100 14.03646 36040 ft 388 kts 283°
2026-05-07 10:31 41.90684 13.96711 36023 ft 390 kts 284°
2026-05-07 10:31 41.92289 13.89740 36007 ft 392 kts 284°
2026-05-07 10:32 41.93885 13.82726 36022 ft 393 kts 283°
2026-05-07 10:32 41.95464 13.75697 36035 ft 394 kts 283°
2026-05-07 10:33 41.97005 13.68786 36038 ft 394 kts 283°
2026-05-07 10:33 41.98565 13.61736 36038 ft 393 kts 283°
2026-05-07 10:34 42.00128 13.54699 36010 ft 389 kts 283°
2026-05-07 10:34 42.00903 13.51236 35636 ft 385 kts 283°
2026-05-07 10:34 42.01670 13.47797 35129 ft 384 kts 282°
2026-05-07 10:35 42.02429 13.44364 34659 ft 381 kts 282°
2026-05-07 10:35 42.03180 13.40959 34239 ft 378 kts 282°
2026-05-07 10:35 42.03924 13.37576 33755 ft 376 kts 282°
2026-05-07 10:35 42.04659 13.34218 33264 ft 372 kts 281°
2026-05-07 10:36 42.05386 13.30893 32771 ft 369 kts 281°
2026-05-07 10:36 42.06089 13.27647 32292 ft 366 kts 280°
2026-05-07 10:36 42.06697 13.24343 31788 ft 362 kts 278°
2026-05-07 10:36 42.07213 13.21049 31316 ft 358 kts 277°
2026-05-07 10:37 42.07684 13.17773 30816 ft 355 kts 276°
2026-05-07 10:37 42.08143 13.14509 30180 ft 357 kts 276°
2026-05-07 10:37 42.08612 13.11197 29356 ft 362 kts 276°
2026-05-07 10:37 42.09095 13.07876 28704 ft 362 kts 276°
2026-05-07 10:38 42.09593 13.04561 28120 ft 361 kts 276°
2026-05-07 10:38 42.10097 13.01262 27558 ft 359 kts 276°
2026-05-07 10:38 42.10643 12.97983 27008 ft 361 kts 281°
2026-05-07 10:38 42.11622 12.94847 26460 ft 367 kts 291°
2026-05-07 10:39 42.12806 12.91760 25653 ft 374 kts 291°
2026-05-07 10:39 42.14000 12.88640 25025 ft 376 kts 291°
2026-05-07 10:39 42.15197 12.85509 24426 ft 376 kts 291°
2026-05-07 10:39 42.16394 12.82371 23898 ft 376 kts 291°
2026-05-07 10:40 42.17587 12.79237 23404 ft 375 kts 291°
2026-05-07 10:40 42.18772 12.76112 22922 ft 373 kts 291°
2026-05-07 10:40 42.19948 12.73007 22456 ft 371 kts 291°
2026-05-07 10:40 42.21117 12.69913 21752 ft 373 kts 291°
2026-05-07 10:41 42.22307 12.66745 20825 ft 383 kts 292°
2026-05-07 10:41 42.23532 12.63542 20197 ft 385 kts 295°
2026-05-07 10:41 42.25206 12.60699 19681 ft 392 kts 312°
2026-05-07 10:41 42.27466 12.58604 19168 ft 399 kts 330°
2026-05-07 10:42 42.30050 12.57206 18644 ft 399 kts 335°
2026-05-07 10:42 42.32638 12.55875 18125 ft 397 kts 335°
2026-05-07 10:42 42.35205 12.54556 17578 ft 393 kts 334°
2026-05-07 10:42 42.37750 12.53244 17014 ft 389 kts 334°
2026-05-07 10:43 42.40263 12.51940 16481 ft 385 kts 334°
2026-05-07 10:43 42.42755 12.50638 15978 ft 382 kts 334°
2026-05-07 10:43 42.45219 12.49348 15453 ft 378 kts 335°
2026-05-07 10:43 42.47661 12.48071 14920 ft 374 kts 335°
2026-05-07 10:44 42.50078 12.46808 14393 ft 371 kts 335°
2026-05-07 10:44 42.52450 12.45572 14180 ft 358 kts 335°
2026-05-07 10:44 42.54736 12.44384 13986 ft 346 kts 335°
2026-05-07 10:44 42.56945 12.43232 13785 ft 335 kts 334°
2026-05-07 10:45 42.59082 12.42111 13579 ft 324 kts 335°
2026-05-07 10:45 42.61151 12.41024 13368 ft 314 kts 334°
2026-05-07 10:45 42.63155 12.39967 13166 ft 304 kts 334°
2026-05-07 10:45 42.65101 12.38942 12956 ft 297 kts 334°
2026-05-07 10:46 42.67002 12.37942 12747 ft 290 kts 334°
2026-05-07 10:46 42.68860 12.36966 12553 ft 283 kts 334°
2026-05-07 10:46 42.70673 12.36014 12334 ft 276 kts 334°
2026-05-07 10:46 42.72441 12.35084 12159 ft 267 kts 334°
2026-05-07 10:47 42.74136 12.34194 11950 ft 256 kts 334°
2026-05-07 10:47 42.75771 12.33333 11751 ft 248 kts 334°
2026-05-07 10:47 42.77365 12.32554 11559 ft 240 kts 341°
2026-05-07 10:47 42.78985 12.32284 11381 ft 229 kts 356°
2026-05-07 10:48 42.80561 12.32565 10884 ft 232 kts 11°
2026-05-07 10:48 42.82067 12.33430 10261 ft 238 kts 28°
2026-05-07 10:48 42.83385 12.34793 9634 ft 238 kts 37°
2026-05-07 10:48 42.84654 12.36230 8983 ft 236 kts 38°
2026-05-07 10:49 42.85912 12.37647 8334 ft 234 kts 37°
2026-05-07 10:49 42.87160 12.39050 7709 ft 231 kts 38°
2026-05-07 10:49 42.88412 12.40456 7074 ft 229 kts 38°
2026-05-07 10:49 42.89635 12.41830 6464 ft 227 kts 38°
2026-05-07 10:50 42.90844 12.43189 5865 ft 223 kts 38°
2026-05-07 10:50 42.92018 12.44513 5353 ft 214 kts 39°
2026-05-07 10:50 42.93234 12.45583 4861 ft 205 kts 21°
2026-05-07 10:50 42.94580 12.46107 4346 ft 199 kts 13°
2026-05-07 10:51 42.95901 12.46562 3839 ft 192 kts 12°
2026-05-07 10:51 42.97174 12.47003 3395 ft 185 kts 13°
2026-05-07 10:51 42.98390 12.47425 3055 ft 175 kts 13°
2026-05-07 10:51 42.99526 12.47819 2834 ft 163 kts 14°
2026-05-07 10:52 43.00593 12.48190 2572 ft 155 kts 13°
2026-05-07 10:52 43.01622 12.48554 2307 ft 151 kts 14°
2026-05-07 10:52 43.02639 12.48906 2060 ft 149 kts 13°
2026-05-07 10:52 43.03641 12.49250 1795 ft 148 kts 13°
2026-05-07 10:53 43.04632 12.49597 1592 ft 146 kts 13°
2026-05-07 10:53 43.05621 12.49942 1387 ft 147 kts 13°
2026-05-07 10:53 43.06621 12.50293 1192 ft 150 kts 13°
2026-05-07 10:53 43.07632 12.50641 1001 ft 151 kts 13°
2026-05-07 10:54 43.08641 12.50995 796 ft 150 kts 14°
2026-05-07 10:54 43.09614 12.51329 669 ft 132 kts 15°
2026-05-07 10:54 43.10553 12.51661 984 ft 147 kts 14°
2026-05-07 10:54 43.11582 12.51911 1771 ft 151 kts 357°
2026-05-07 10:55 43.12577 12.51360 2131 ft 163 kts 314°
2026-05-07 10:55 43.13096 12.49979 2643 ft 167 kts 276°
2026-05-07 10:55 43.12890 12.48469 3154 ft 162 kts 239°
2026-05-07 10:55 43.12064 12.47459 3654 ft 162 kts 207°
2026-05-07 10:56 43.11033 12.46802 3969 ft 165 kts 206°
2026-05-07 10:56 43.10002 12.46139 4004 ft 163 kts 206°
2026-05-07 10:56 43.08969 12.45472 4013 ft 165 kts 207°
2026-05-07 10:56 43.08124 12.44445 4007 ft 165 kts 238°
2026-05-07 10:57 43.07670 12.42899 4097 ft 182 kts 250°
2026-05-07 10:57 43.07241 12.41230 4353 ft 188 kts 250°
2026-05-07 10:57 43.06804 12.39527 4617 ft 191 kts 250°
2026-05-07 10:57 43.06364 12.37818 4871 ft 191 kts 250°
2026-05-07 10:58 43.05917 12.36096 4985 ft 192 kts 250°
2026-05-07 10:58 43.05470 12.34375 5006 ft 192 kts 249°
2026-05-07 10:58 43.05005 12.32590 5002 ft 211 kts 250°
2026-05-07 10:58 43.04503 12.30663 4974 ft 218 kts 250°
2026-05-07 10:59 43.03996 12.28710 4997 ft 219 kts 249°
2026-05-07 10:59 43.03487 12.26747 5005 ft 218 kts 250°
2026-05-07 10:59 43.02782 12.24933 5007 ft 218 kts 223°
2026-05-07 10:59 43.01419 12.24134 5009 ft 220 kts 181°
2026-05-07 11:00 42.99934 12.24640 5006 ft 224 kts 158°
2026-05-07 11:00 42.98490 12.25447 5004 ft 224 kts 161°
2026-05-07 11:00 42.97026 12.26194 5000 ft 225 kts 162°
2026-05-07 11:00 42.96047 12.26677 5003 ft 227 kts 162°
2026-05-07 11:01 42.94562 12.27408 5008 ft 228 kts 160°
2026-05-07 11:01 42.93207 12.28519 5005 ft 230 kts 141°
2026-05-07 11:01 42.92135 12.30138 5006 ft 231 kts 131°
2026-05-07 11:01 42.91113 12.31835 5005 ft 232 kts 131°
2026-05-07 11:02 42.90087 12.33528 5005 ft 232 kts 131°
2026-05-07 11:02 42.89057 12.35218 5004 ft 231 kts 131°
2026-05-07 11:02 42.88191 12.37056 5001 ft 233 kts 108°
2026-05-07 11:02 42.88135 12.39228 5001 ft 233 kts 73°
2026-05-07 11:03 42.88959 12.41098 4966 ft 234 kts 42°
2026-05-07 11:03 42.90194 12.42518 4709 ft 229 kts 38°
2026-05-07 11:03 42.91418 12.43879 4420 ft 225 kts 38°
2026-05-07 11:03 42.92665 12.45176 4146 ft 220 kts 29°
2026-05-07 11:04 42.94051 12.45932 3935 ft 210 kts 12°
2026-05-07 11:04 42.95419 12.46397 3713 ft 197 kts 12°
2026-05-07 11:04 42.96701 12.46839 3430 ft 189 kts 13°
2026-05-07 11:04 42.97969 12.47278 3152 ft 183 kts 13°
2026-05-07 11:05 42.99186 12.47700 2888 ft 179 kts 13°
2026-05-07 11:05 43.00377 12.48114 2636 ft 171 kts 13°
2026-05-07 11:05 43.01488 12.48501 2394 ft 158 kts 13°
2026-05-07 11:05 43.02522 12.48867 2109 ft 150 kts 14°
2026-05-07 11:06 43.03523 12.49226 1811 ft 147 kts 15°
2026-05-07 11:06 43.04510 12.49601 1595 ft 148 kts 13°
2026-05-07 11:06 43.05509 12.49913 1376 ft 147 kts 10°
2026-05-07 11:06 43.06506 12.50239 1168 ft 148 kts 14°
2026-05-07 11:07 43.07499 12.50593 977 ft 148 kts 13°
2026-05-07 11:07 43.08486 12.50941 788 ft 147 kts 13°
2026-05-07 11:07 43.09452 12.51271 669 ft 131 kts 14°
2026-05-07 11:07 43.10120 12.51506 671 ft 78 kts 14°
2026-05-07 11:08 43.10546 12.51657 670 ft 47 kts 14°
2026-05-07 11:08 43.10717 12.51716 669 ft 7 kts 12°
2026-05-07 11:08 43.10759 12.51682 669 ft 8 kts 295°
2026-05-07 11:08 43.10777 12.51595 669 ft 10 kts 284°
2026-05-07 11:09 43.10759 12.51503 668 ft 11 kts 211°
2026-05-07 11:09 43.10677 12.51470 669 ft 13 kts 194°
2026-05-07 11:09 43.10581 12.51437 670 ft 15 kts 193°
2026-05-07 11:09 43.10473 12.51400 670 ft 17 kts 194°
2026-05-07 11:10 43.10352 12.51356 670 ft 19 kts 194°
2026-05-07 11:10 43.10217 12.51309 670 ft 21 kts 194°
2026-05-07 11:10 43.10070 12.51258 669 ft 23 kts 194°
2026-05-07 11:10 43.09912 12.51203 669 ft 23 kts 194°
2026-05-07 11:11 43.09785 12.51159 669 ft 12 kts 201°
2026-05-07 11:11 43.09742 12.51072 669 ft 12 kts 246°
2026-05-07 11:11 43.09703 12.50955 669 ft 15 kts 245°
2026-05-07 11:11 43.09659 12.50819 669 ft 17 kts 245°
2026-05-07 11:12 43.09608 12.50663 669 ft 18 kts 246°
2026-05-07 11:12 43.09568 12.50543 669 ft 13 kts 245°
2026-05-07 11:12 43.09537 12.50464 668 ft 6 kts 220°
2026-05-07 11:12 43.09506 12.50461 669 ft 5 kts 162°
2026-05-07 11:13 43.09471 12.50479 669 ft 6 kts 159°
2026-05-07 11:13 43.09427 12.50503 669 ft 6 kts 159°
2026-05-07 11:13 43.09404 12.50483 669 ft 5 kts 238°
2026-05-07 11:13 43.09387 12.50432 667 ft 6 kts 246°
2026-05-07 11:14 43.09388 12.50413 669 ft 1 kts 292°
2026-05-07 11:14 43.09400 12.50403 669 ft 2 kts 329°
2026-05-07 11:14 43.09410 12.50398 669 ft 1 kts 340°
2026-05-07 11:14 43.09411 12.50397 669 ft 0 kts 340°